GW4457 Weather Reports


Display with metric or nautical units.
time (UTC)temp
F
wind
direction
speed
MPH
gust
MPH
rain 1hr
in
rain 24hr
in
rain mn
in
humidity
%
barometer
mb
20260902090653 80 82 6.0 11.0 0.00 0.00 0.00 76 1020.2
20260902090152 80 110 6.0 14.0 0.00 0.00 0.00 76 1020.2
20260902085652 80 95 9.0 13.0 0.00 0.00 0.00 76 1020.2
20260902085147 80 86 9.0 14.0 0.00 0.00 0.00 76 1020.1
20260902084643 80 62 8.0 11.0 0.00 0.00 0.00 75 1020.2
20260902084139 80 74 9.0 13.0 0.00 0.00 0.00 75 1020.1
20260902083634 80 79 10.0 15.0 0.00 0.00 0.00 75 1020.1
20260902083133 80 96 6.0 10.0 0.00 0.00 0.00 75 1020.2
20260902082629 80 103 8.0 14.0 0.00 0.00 0.00 75 1020.0
20260902082126 80 95 7.0 13.0 0.00 0.00 0.00 75 1020.2
20260902081622 80 79 9.0 15.0 0.00 0.00 0.00 75 1020.2
20260902081122 80 121 7.0 15.0 0.00 0.00 0.00 75 1020.2
20260902080617 80 91 10.0 14.0 0.00 0.00 0.00 75 1020.2
20260902080114 80 80 11.0 15.0 0.00 0.00 0.00 75 1020.3
20260902075613 80 267 4.0 16.0 0.00 0.00 0.00 74 1020.3
20260902075109 80 60 5.0 11.0 0.00 0.00 0.00 74 1020.0
20260902074604 80 94 6.0 13.0 0.00 0.00 0.00 74 1020.3
20260902074059 80 96 7.0 11.0 0.00 0.00 0.00 74 1020.3
20260902073554 80 83 7.0 9.0 0.00 0.00 0.00 73 1020.3
20260902073051 80 66 7.0 9.0 0.00 0.00 0.00 74 1020.3
20260902072547 80 73 7.0 10.0 0.00 0.00 0.00 74 1020.4
20260902072043 80 79 9.0 15.0 0.00 0.00 0.00 74 1020.5
20260902071542 80 107 6.0 13.0 0.00 0.00 0.00 74 1020.4
20260902071039 80 101 6.0 10.0 0.00 0.00 0.00 74 1020.3
20260902070534 80 80 6.0 10.0 0.00 0.00 0.00 74 1020.3
20260902070029 80 76 7.0 13.0 0.00 0.00 0.00 74 1020.3
20260902065523 80 82 11.0 13.0 0.00 0.00 0.00 75 1020.3
20260902065018 80 70 5.0 11.0 0.00 0.00 0.00 75 1020.5
20260902064514 80 64 10.0 15.0 0.00 0.00 0.00 75 1020.4
20260902064009 80 95 8.0 14.0 0.00 0.00 0.00 75 1020.7
20260902063509 80 72 6.0 11.0 0.00 0.00 0.00 75 1020.7
20260902063004 80 96 9.0 13.0 0.00 0.00 0.00 75 1020.6
20260902062502 80 56 8.0 13.0 0.00 0.00 0.00 75 1020.7
20260902061958 80 100 4.0 16.0 0.00 0.00 0.00 75 1020.7
20260902061453 80 86 10.0 11.0 0.00 0.00 0.00 75 1020.6
20260902060949 80 56 6.0 16.0 0.00 0.00 0.00 76 1020.9
20260902060445 80 86 8.0 13.0 0.00 0.00 0.00 76 1020.5
20260902055942 80 74 6.0 10.0 0.00 0.00 0.00 76 1020.7
20260902055437 80 32 5.0 14.0 0.00 0.00 0.00 76 1020.9
20260902054932 80 79 6.0 13.0 0.00 0.00 0.00 76 1021.0
20260902054427 80 87 6.0 13.0 0.00 0.00 0.00 76 1020.7
20260902053923 80 75 11.0 13.0 0.00 0.00 0.00 76 1021.0
20260902053418 80 61 9.0 17.0 0.00 0.00 0.00 76 1021.0
20260902052917 80 92 9.0 15.0 0.00 0.00 0.00 76 1021.2
20260902052412 80 98 9.0 17.0 0.00 0.00 0.00 77 1021.2
20260902051907 80 81 9.0 17.0 0.00 0.00 0.00 77 1021.2
20260902051402 80 83 7.0 13.0 0.00 0.00 0.00 77 1021.3
20260902050901 80 69 9.0 13.0 0.00 0.00 0.00 78 1021.1
20260902050400 80 12 6.0 15.0 0.00 0.00 0.00 79 1021.2
20260902045856 80 102 9.0 13.0 0.00 0.00 0.00 79 1021.3
20260902045351 80 80 7.0 10.0 0.00 0.00 0.00 80 1021.3
20260902044848 80 74 9.0 13.0 0.00 0.00 0.00 81 1021.2
20260902044343 80 68 8.0 10.0 0.00 0.00 0.00 81 1021.3
20260902043843 80 80 8.0 10.0 0.00 0.00 0.00 82 1021.6
20260902043338 80 79 8.0 9.0 0.00 0.00 0.00 82 1021.3
20260902042833 80 112 9.0 11.0 0.00 0.00 0.00 82 1021.6
20260902042332 80 99 8.0 10.0 0.00 0.00 0.00 81 1021.6
20260902041828 80 76 8.0 10.0 0.00 0.00 0.00 81 1021.4
20260902041327 80 78 9.0 10.0 0.00 0.00 0.00 81 1021.4
20260902040826 80 83 6.0 9.0 0.00 0.00 0.00 81 1021.6
20260902040322 80 83 7.0 9.0 0.00 0.00 0.00 81 1021.6
20260902035820 80 117 8.0 10.0 0.00 0.00 0.00 81 1021.6
20260902035316 80 111 4.0 10.0 0.00 0.00 0.00 81 1021.7
20260902034815 80 120 6.0 11.0 0.00 0.00 0.00 81 1021.6
20260902034310 80 126 5.0 11.0 0.00 0.00 0.00 81 1021.6
20260902033808 80 99 5.0 11.0 0.00 0.00 0.00 82 1021.6
20260902033304 80 127 4.0 9.0 0.00 0.00 0.00 82 1021.5
20260902032802 80 106 6.0 11.0 0.00 0.00 0.00 82 1021.7
20260902032257 80 53 9.0 11.0 0.00 0.00 0.00 81 1021.6
20260902031757 80 118 5.0 10.0 0.00 0.00 0.00 81 1021.7
20260902031253 80 92 8.0 10.0 0.00 0.00 0.00 80 1021.7
20260902030748 80 209 6.0 13.0 0.00 0.00 0.00 80 1022.0
20260902030243 80 69 6.0 9.0 0.00 0.00 0.00 79 1021.9
20260902025742 80 89 8.0 11.0 0.00 0.00 0.00 80 1022.0
20260902025238 80 65 3.0 9.0 0.00 0.00 0.00 80 1022.0
20260902024732 80 103 4.0 7.0 0.00 0.00 0.00 80 1021.8
20260902024228 80 100 5.0 7.0 0.00 0.00 0.00 80 1021.9
20260902023724 80 112 6.0 7.0 0.00 0.00 0.00 80 1021.9
20260902023219 80 91 9.0 9.0 0.00 0.00 0.00 81 1021.6
20260902022718 80 97 9.0 10.0 0.00 0.00 0.00 82 1021.8
20260902022214 80 90 6.0 8.0 0.00 0.00 0.00 82 1021.9
20260902021710 80 89 4.0 7.0 0.00 0.00 0.00 82 1021.7
20260902021209 80 78 5.0 10.0 0.00 0.00 0.00 82 1021.7
20260902020706 80 82 5.0 6.0 0.00 0.00 0.00 82 1021.5
20260902020201 81 115 6.0 8.0 0.00 0.00 0.00 83 1021.6
20260902015656 81 104 6.0 7.0 0.00 0.00 0.00 82 1021.7
20260902015153 81 84 6.0 9.0 0.00 0.00 0.00 82 1021.7
20260902014648 81 60 2.0 7.0 0.00 0.00 0.00 82 1021.5
20260902014144 81 91 6.0 9.0 0.00 0.00 0.00 82 1021.3
20260902013643 81 45 7.0 10.0 0.00 0.00 0.00 82 1021.4
20260902013139 81 60 8.0 9.0 0.00 0.00 0.00 81 1021.6
20260902012634 81 90 6.0 8.0 0.00 0.00 0.00 81 1021.4
20260902012130 81 115 5.0 8.0 0.00 0.00 0.00 81 1021.3
20260902011626 81 117 8.0 10.0 0.00 0.00 0.00 81 1021.2
20260902011126 81 90 7.0 8.0 0.00 0.00 0.00 81 1021.1
20260902010624 81 93 8.0 10.0 0.00 0.00 0.00 81 1021.4
20260902010120 81 62 9.0 10.0 0.00 0.00 0.00 80 1021.1
20260902005618 81 80 6.0 10.0 0.00 0.00 0.00 80 1021.0
20260902005114 81 99 7.0 9.0 0.00 0.00 0.00 80 1021.0
20260902004613 81 82 7.0 10.0 0.00 0.00 0.00 79 1021.2
20260902004108 81 96 4.0 10.0 0.00 0.00 0.00 79 1020.8
20260902003604 81 74 8.0 9.0 0.00 0.00 0.00 78 1020.9
20260902003059 81 55 4.0 8.0 0.00 0.00 0.00 78 1020.8
20260902002555 81 78 7.0 10.0 0.00 0.00 0.00 78 1020.6
20260902002049 81 97 9.0 11.0 0.00 0.00 0.00 78 1020.6
20260902001544 81 75 8.0 14.0 0.00 0.00 0.00 78 1020.5
20260902001039 81 94 6.0 13.0 0.00 0.00 0.00 78 1020.6
20260902000534 81 75 9.0 14.0 0.00 0.00 0.00 79 1020.6
20260902000030 81 60 5.0 10.0 0.00 0.00 0.00 80 1020.6
20260901235524 81 73 6.0 9.0 0.00 0.00 0.00 81 1020.8
20260901235020 81 78 4.0 6.0 0.00 0.00 0.00 82 1020.6
20260901234518 81 98 4.0 8.0 0.00 0.00 0.00 82 1020.4
20260901234013 81 122 5.0 7.0 0.00 0.00 0.00 82 1020.4
20260901233508 81 96 6.0 9.0 0.00 0.00 0.00 82 1020.4
20260901233005 81 131 4.0 7.0 0.00 0.00 0.00 82 1020.2
20260901232459 81 198 3.0 10.0 0.00 0.00 0.00 82 1020.2
20260901231954 81 195 5.0 8.0 0.00 0.00 0.00 81 1019.9
20260901231450 81 100 8.0 14.0 0.00 0.00 0.00 81 1020.2
20260901230948 82 80 8.0 10.0 0.00 0.00 0.00 81 1020.2
20260901230447 81 82 7.0 10.0 0.00 0.00 0.00 81 1020.0
20260901225942 81 113 6.0 10.0 0.00 0.00 0.00 81 1020.1
20260901225442 81 96 7.0 11.0 0.00 0.00 0.00 82 1020.0
20260901224937 82 148 4.0 8.0 0.00 0.00 0.00 82 1019.9
20260901224433 82 115 9.0 13.0 0.00 0.00 0.00 82 1020.1
20260901223929 82 101 9.0 11.0 0.00 0.00 0.00 81 1020.0
20260901223424 82 237 7.0 11.0 0.00 0.00 0.00 81 1020.1
20260901222920 82 147 5.0 15.0 0.00 0.00 0.00 80 1020.0
20260901222416 82 94 9.0 14.0 0.00 0.00 0.00 80 1019.9
20260901221912 82 65 7.0 13.0 0.00 0.00 0.00 80 1019.7
20260901221408 82 97 14.0 16.0 0.00 0.00 0.00 79 1019.8
20260901220908 82 95 9.0 13.0 0.00 0.00 0.00 78 1019.8
20260901220406 83 102 7.0 14.0 0.00 0.00 0.00 77 1019.8
20260901215905 83 82 7.0 14.0 0.00 0.00 0.00 77 1019.6
20260901215404 83 130 5.0 16.0 0.00 0.00 0.00 76 1019.7
20260901214903 83 108 15.0 17.0 0.00 0.00 0.00 76 1019.8
20260901214402 84 53 10.0 16.0 0.00 0.00 0.00 76 1019.8
20260901213901 84 107 9.0 14.0 0.00 0.00 0.00 76 1019.9
20260901213357 84 72 10.0 15.0 0.00 0.00 0.00 75 1019.7
20260901212856 84 132 12.0 17.0 0.00 0.00 0.00 75 1019.6
20260901212352 84 89 11.0 14.0 0.00 0.00 0.00 75 1019.6
20260901211848 84 111 13.0 16.0 0.00 0.00 0.00 75 1019.5
20260901211344 84 132 12.0 16.0 0.00 0.00 0.00 74 1019.6
20260901210839 84 143 11.0 16.0 0.00 0.00 0.00 73 1019.6
20260901210335 84 100 14.0 18.0 0.00 0.00 0.00 74 1019.6
20260901205831 84 63 10.0 19.0 0.00 0.00 0.00 74 1019.9
20260901205326 85 94 12.0 17.0 0.00 0.00 0.00 73 1019.8
20260901204821 86 115 11.0 15.0 0.00 0.00 0.00 73 1019.7
20260901204317 86 107 11.0 17.0 0.00 0.00 0.00 73 1019.8
20260901203816 86 83 11.0 21.0 0.00 0.00 0.00 72 1019.6
20260901203311 86 108 18.0 22.0 0.00 0.00 0.00 71 1019.8
20260901202811 86 115 10.0 17.0 0.00 0.00 0.00 71 1019.8
20260901202307 86 77 13.0 18.0 0.00 0.00 0.00 71 1019.8
20260901201803 85 138 11.0 17.0 0.00 0.00 0.00 71 1019.8
20260901201302 85 104 12.0 21.0 0.00 0.00 0.00 74 1019.8
20260901200755 84 154 12.0 15.0 0.00 0.00 0.00 78 1019.9
20260901200251 84 124 8.0 14.0 0.00 0.00 0.00 80 1020.1
20260901195749 84 117 15.0 17.0 0.00 0.00 0.00 80 1019.8
20260901195243 83 102 13.0 16.0 0.00 0.00 0.00 81 1019.9
20260901194739 83 102 13.0 16.0 0.00 0.00 0.00 81 1019.9
20260901194233 83 102 13.0 16.0 0.00 0.00 0.00 81 1019.9
20260901193730 83 102 13.0 16.0 0.00 0.00 0.00 81 1019.8
20260901193228 83 102 13.0 16.0 0.00 0.00 0.00 81 1020.1
20260901192723 83 102 13.0 16.0 0.00 0.00 0.00 81 1019.9
20260901192219 83 105 11.0 14.0 0.00 0.00 0.00 81 1020.0
20260901191715 83 122 8.0 14.0 0.00 0.00 0.00 82 1020.1
20260901191210 83 127 13.0 17.0 0.00 0.00 0.00 81 1019.9
20260901190706 83 95 10.0 15.0 0.00 0.00 0.00 81 1020.1
20260901190205 83 104 13.0 16.0 0.00 0.00 0.00 81 1020.2
20260901185704 83 104 12.0 17.0 0.00 0.00 0.00 80 1019.9
20260901185202 83 83 11.0 17.0 0.00 0.00 0.00 80 1020.0
20260901184700 83 88 10.0 19.0 0.00 0.00 0.00 80 1019.9
20260901184154 84 114 11.0 17.0 0.00 0.00 0.00 79 1019.9
20260901183649 85 72 12.0 15.0 0.00 0.00 0.00 77 1020.0
20260901183149 86 98 17.0 21.0 0.00 0.00 0.00 73 1019.7
20260901182646 87 152 9.0 15.0 0.00 0.00 0.00 71 1020.3
20260901182144 88 158 12.0 22.0 0.00 0.00 0.00 70 1020.2
20260901181640 88 101 17.0 22.0 0.00 0.00 0.00 69 1019.8
20260901181140 88 105 14.0 19.0 0.00 0.00 0.00 70 1019.5
20260901180639 87 145 12.0 19.0 0.00 0.00 0.00 71 1019.8
20260901180133 89 108 14.0 23.0 0.00 0.00 0.00 69 1019.9
20260901175633 88 93 16.0 22.0 0.00 0.00 0.00 68 1019.9
20260901175133 88 96 12.0 22.0 0.00 0.00 0.00 67 1020.0
20260901174628 88 83 16.0 23.0 0.00 0.00 0.00 66 1020.2
20260901174124 88 223 12.0 19.0 0.00 0.00 0.00 67 1020.2
20260901173619 89 125 13.0 22.0 0.00 0.00 0.00 65 1020.4
20260901173115 89 120 13.0 17.0 0.00 0.00 0.00 64 1020.6
20260901172610 89 120 18.0 21.0 0.00 0.00 0.00 64 1020.6
20260901172108 89 120 18.0 21.0 0.00 0.00 0.00 64 1020.6
20260901171608 89 177 17.0 23.0 0.00 0.00 0.00 63 1020.6
20260901171102 89 109 15.0 19.0 0.00 0.00 0.00 65 1020.8
20260901170601 90 89 15.0 18.0 0.00 0.00 0.00 65 1020.9
20260901170056 91 63 13.0 17.0 0.00 0.00 0.00 64 1021.1
20260901165555 90 132 13.0 22.0 0.00 0.00 0.00 65 1021.0
20260901165051 89 89 13.0 16.0 0.00 0.00 0.00 62 1020.9
20260901164546 89 124 15.0 18.0 0.00 0.00 0.00 62 1021.1
20260901164041 89 99 17.0 22.0 0.00 0.00 0.00 63 1021.0
20260901163537 89 100 16.0 18.0 0.00 0.00 0.00 67 1021.1
20260901163036 89 100 16.0 18.0 0.00 0.00 0.00 67 1021.1
20260901162531 89 100 16.0 18.0 0.00 0.00 0.00 67 1021.3
20260901162030 89 100 16.0 18.0 0.00 0.00 0.00 67 1021.4
20260901161529 89 100 16.0 18.0 0.00 0.00 0.00 67 1021.2
20260901161029 89 100 16.0 18.0 0.00 0.00 0.00 67 1021.5
20260901160526 89 100 16.0 18.0 0.00 0.00 0.00 67 1021.3
20260901160020 89 89 18.0 24.0 0.00 0.00 0.00 66 1021.4
20260901155519 89 130 10.0 14.0 0.00 0.00 0.00 67 1021.3
20260901155016 89 151 11.0 23.0 0.00 0.00 0.00 66 1021.5
20260901154515 90 129 17.0 25.0 0.00 0.00 0.00 65 1021.5
20260901154010 90 88 15.0 19.0 0.00 0.00 0.00 64 1021.4
20260901153504 90 90 16.0 27.0 0.00 0.00 0.00 66 1021.3
20260901152959 89 87 16.0 24.0 0.00 0.00 0.00 65 1021.6
20260901152458 90 106 14.0 23.0 0.00 0.00 0.00 64 1021.6
20260901151958 89 135 15.0 21.0 0.00 0.00 0.00 64 1021.5
20260901151453 89 84 18.0 22.0 0.00 0.00 0.00 64 1021.4
20260901150952 89 71 14.0 18.0 0.00 0.00 0.00 65 1021.2
20260901150450 88 81 13.0 23.0 0.00 0.00 0.00 66 1021.2
20260901145948 89 109 21.0 24.0 0.00 0.00 0.00 64 1021.3
20260901145443 88 110 15.0 21.0 0.00 0.00 0.00 65 1021.4
20260901144937 89 169 19.0 23.0 0.00 0.00 0.00 63 1021.5
20260901144432 89 140 11.0 17.0 0.00 0.00 0.00 62 1021.4
20260901143928 89 105 12.0 18.0 0.00 0.00 0.00 64 1021.5
20260901143424 89 110 19.0 24.0 0.00 0.00 0.00 63 1021.4
20260901142920 89 100 15.0 18.0 0.00 0.00 0.00 63 1021.3
20260901142420 89 50 8.0 21.0 0.00 0.00 0.00 64 1021.5
20260901141915 89 95 14.0 18.0 0.00 0.00 0.00 62 1021.5
20260901141409 88 118 11.0 19.0 0.00 0.00 0.00 63 1021.6
20260901140909 88 106 15.0 21.0 0.00 0.00 0.00 63 1021.6
20260901140407 88 115 11.0 17.0 0.00 0.00 0.00 64 1021.8
20260901135902 87 133 11.0 23.0 0.00 0.00 0.00 67 1021.8
20260901135357 87 122 13.0 22.0 0.00 0.00 0.00 66 1021.5
20260901134853 87 155 10.0 18.0 0.00 0.00 0.00 66 1021.5
20260901134349 87 110 10.0 15.0 0.00 0.00 0.00 66 1021.7
20260901133848 87 134 14.0 17.0 0.00 0.00 0.00 66 1021.7
20260901133348 86 92 11.0 16.0 0.00 0.00 0.00 65 1021.5
20260901132846 86 114 12.0 18.0 0.00 0.00 0.00 66 1021.7
20260901132341 86 110 8.0 15.0 0.00 0.00 0.00 65 1021.7
20260901131835 87 202 6.0 15.0 0.00 0.00 0.00 63 1021.5
20260901131334 87 100 9.0 15.0 0.00 0.00 0.00 62 1021.5
20260901130830 86 159 7.0 16.0 0.00 0.00 0.00 62 1021.7
20260901130324 86 135 9.0 13.0 0.00 0.00 0.00 61 1021.7
20260901125822 85 88 5.0 11.0 0.00 0.00 0.00 62 1021.4
20260901125322 85 69 7.0 11.0 0.00 0.00 0.00 61 1021.7
20260901124817 85 138 6.0 11.0 0.00 0.00 0.00 59 1021.6
20260901124313 85 109 7.0 11.0 0.00 0.00 0.00 59 1021.5
20260901123812 85 115 6.0 13.0 0.00 0.00 0.00 60 1021.5
20260901123307 85 107 5.0 8.0 0.00 0.00 0.00 59 1021.5
20260901122805 85 101 9.0 11.0 0.00 0.00 0.00 58 1021.4
20260901122300 85 81 8.0 14.0 0.00 0.00 0.00 58 1021.1
20260901121800 85 102 9.0 13.0 0.00 0.00 0.00 58 1021.1
20260901121255 85 84 9.0 11.0 0.00 0.00 0.00 57 1021.0
20260901120755 85 167 4.0 10.0 0.00 0.00 0.00 57 1020.7
20260901120249 85 90 10.0 14.0 0.00 0.00 0.00 55 1020.9
20260901115745 85 88 11.0 14.0 0.00 0.00 0.00 53 1020.9
20260901115240 86 94 11.0 13.0 0.00 0.00 0.00 52 1020.8
20260901114737 85 146 7.0 14.0 0.00 0.00 0.00 53 1020.5
20260901114232 84 80 10.0 11.0 0.00 0.00 0.00 54 1020.6
20260901113730 84 80 10.0 11.0 0.00 0.00 0.00 54 1020.6
20260901113226 84 84 12.0 14.0 0.00 0.00 0.00 54 1020.1
20260901112725 84 88 10.0 15.0 0.00 0.00 0.00 55 1020.3
20260901112220 84 121 9.0 11.0 0.00 0.00 0.00 55 1020.3
20260901111720 84 121 8.0 15.0 0.00 0.00 0.00 55 1020.2
20260901111220 83 89 10.0 15.0 0.00 0.00 0.00 56 1020.3
20260901110713 83 67 8.0 16.0 0.00 0.00 0.00 56 1020.2
20260901110209 84 87 8.0 13.0 0.00 0.00 0.00 55 1020.3
20260901105706 83 54 8.0 14.0 0.00 0.00 0.00 56 1020.1
20260901105159 83 76 9.0 17.0 0.00 0.00 0.00 57 1020.2
20260901104655 82 88 12.0 18.0 0.00 0.00 0.00 58 1020.0
20260901104150 82 67 14.0 17.0 0.00 0.00 0.00 59 1020.1
20260901103650 82 75 10.0 14.0 0.00 0.00 0.00 60 1019.9
20260901103146 82 87 8.0 18.0 0.00 0.00 0.00 60 1020.0
20260901102645 82 77 13.0 15.0 0.00 0.00 0.00 59 1020.0
20260901102144 81 89 13.0 15.0 0.00 0.00 0.00 60 1019.9
20260901101641 81 82 13.0 19.0 0.00 0.00 0.00 60 1019.8
20260901101140 81 83 12.0 17.0 0.00 0.00 0.00 62 1019.8
20260901100635 80 74 11.0 18.0 0.00 0.00 0.00 63 1019.6
20260901100130 80 79 14.0 19.0 0.00 0.00 0.00 65 1019.8
20260901095628 79 76 14.0 23.0 0.00 0.00 0.00 67 1019.8
20260901095126 79 69 13.0 22.0 0.00 0.00 0.00 70 1019.7
20260901094621 78 84 12.0 27.0 0.00 0.00 0.00 71 1019.6
20260901094120 77 83 15.0 24.0 0.00 0.00 0.00 74 1019.7
20260901093615 76 92 15.0 21.0 0.00 0.00 0.00 75 1019.6
20260901093115 76 66 16.0 21.0 0.00 0.00 0.00 76 1019.6
20260901092611 76 46 17.0 23.0 0.00 0.00 0.00 76 1019.6
20260901092107 76 84 10.0 17.0 0.00 0.00 0.00 78 1019.8
20260901091602 76 71 14.0 21.0 0.00 0.00 0.00 78 1019.6
20260901091057 76 102 14.0 22.0 0.00 0.00 0.00 79 1019.8